Change the Weather History Date:

Friday, November 30, 2012

  Actual Average Record
Temperature  
Mean Temperature 6 °F -  
Max Temperature 16 °F 2 °F 36 °F (2007)
Min Temperature -4 °F -2 °F -31 °F (2011)
Degree Days  
Heating Degree Days 59    
Moisture  
Dew Point 3 °F    
Average Humidity 85    
Maximum Humidity 93    
Minimum Humidity 79    
Precipitation  
Precipitation 0.00 in - - ()
Sea Level Pressure  
Sea Level Pressure 30.23 in    
Wind  
Wind Speed 0 mph (NW)    
Max Wind Speed 5 mph    
Max Gust Speed -    
Visibility 7 miles    
Events Snow    
Averages and records for this station are not official NWS values.
T = Trace of Precipitation, MM = Missing Value Source: NWS Daily Summary

Daily Weather History Graph

Daily Weather History Graph

Search for Another Location

Airport or City:

Trip Planner

Search our weather history database for the weather conditions in past years. The results will help you decide how hot, cold, wet, or windy it might be!

Date:

Astronomy

Nov. 30, 2012 Rise Set
Actual Time 1:08 PM AKST 2:13 PM AKST
Civil Twilight 10:58 AM AKST 4:23 PM AKST
Nautical Twilight 9:24 AM AKST 5:56 PM AKST
Astronomical Twilight 8:08 AM AKST 7:12 PM AKST
Moon 4:22 PM AKST (11/30) 2:48 PM AKST (11/30)
Length of Visible Light 5h 25m
Length of Day
1h 04m
Waning Gibbous, 95% of the Moon is Illuminated
Nov 30
Waning Gibbous
Dec 6
Last Quarter
Dec 12
New
Dec 19
First Quarter
Dec 28
Full

Hourly Weather History & Observations

Time (AKST) Temp. Windchill Dew Point Humidity Pressure Visibility Wind Dir Wind Speed Gust Speed Precip Events Conditions
12:56 AM -4.0 °F - -8.9 °F 80% 30.34 in 10.0 mi Calm Calm - N/A   Clear
1:56 AM -2.9 °F - -8.0 °F 79% 30.34 in 10.0 mi Calm Calm - N/A   Clear
2:56 AM -2.9 °F - -8.0 °F 79% 30.33 in 10.0 mi Calm Calm - N/A   Clear
3:56 AM -2.9 °F - -8.0 °F 79% 30.32 in 10.0 mi Calm Calm - N/A   Clear
4:56 AM -2.9 °F - -8.0 °F 79% 30.32 in 10.0 mi Calm Calm - N/A   Clear
5:56 AM -0.9 °F - -6.0 °F 79% 30.31 in 10.0 mi Calm Calm - N/A   Clear
6:56 AM 0.1 °F - -4.9 °F 79% 30.29 in 10.0 mi Calm Calm - N/A   Clear
7:56 AM 2.1 °F - -2.9 °F 79% 30.27 in 10.0 mi Calm Calm - N/A   Clear
8:56 AM 1.0 °F - -2.9 °F 83% 30.27 in 10.0 mi Calm Calm - N/A   Clear
9:35 AM 1.4 °F - -2.2 °F 85% 30.25 in 10.0 mi Calm Calm - N/A   Scattered Clouds
9:56 AM 1.0 °F - -2.9 °F 83% 30.25 in 10.0 mi Calm Calm - N/A   Partly Cloudy
10:56 AM 3.0 °F - -0.9 °F 84% 30.24 in 10.0 mi Calm Calm - N/A   Clear
11:56 AM 5.0 °F - 1.0 °F 84% 30.23 in 10.0 mi Calm Calm - N/A   Mostly Cloudy
12:56 PM 7.2 °F - 4.1 °F 87% 30.22 in 4.0 mi Calm Calm - 0.00 in Snow Light Snow
1:04 PM 8.6 °F - 5.0 °F 85% 30.21 in 4.0 mi Calm Calm - 0.00 in Snow Light Snow
1:12 PM 8.6 °F - 5.0 °F 85% 30.20 in 3.0 mi Calm Calm - 0.00 in Snow Light Snow
1:26 PM 8.6 °F - 5.0 °F 85% 30.20 in 2.0 mi Calm Calm - 0.00 in Snow Light Snow
1:41 PM 10.4 °F - 6.8 °F 85% 30.20 in 1.8 mi Calm Calm - 0.00 in Snow Light Snow
1:56 PM 11.1 °F - 7.2 °F 84% 30.21 in 1.2 mi Calm Calm - 0.00 in Snow Light Snow
2:05 PM 10.4 °F - 6.8 °F 85% 30.20 in 1.5 mi Calm Calm - 0.00 in Snow Light Snow
2:13 PM 10.4 °F - 8.6 °F 92% 30.20 in 3.0 mi Calm Calm - 0.00 in Snow Light Snow
2:42 PM 10.4 °F - 8.6 °F 92% 30.20 in 2.0 mi Calm Calm - 0.00 in Snow Light Snow
2:56 PM 10.4 °F - 8.6 °F 92% 30.19 in 2.0 mi Calm Calm - N/A Snow Light Snow
3:35 PM 10.4 °F - 8.6 °F 92% 30.18 in 3.0 mi Calm Calm - 0.00 in Snow Light Snow
3:42 PM 12.2 °F - 8.6 °F 85% 30.18 in 2.5 mi Calm Calm - 0.00 in Snow Light Snow
3:56 PM 12.0 °F - 9.1 °F 88% 30.19 in 6.0 mi Calm Calm - 0.00 in Snow Light Snow
4:23 PM 12.2 °F - 8.6 °F 85% 30.17 in 5.0 mi Calm Calm - 0.00 in Snow Light Snow
4:56 PM 12.0 °F - 9.1 °F 88% 30.17 in 10.0 mi Calm Calm - 0.00 in   Overcast
5:56 PM 14.0 °F - 10.4 °F 86% 30.15 in 10.0 mi Calm Calm - N/A   Overcast
6:09 PM 14.0 °F - 10.4 °F 86% 30.16 in 10.0 mi Calm Calm - N/A   Overcast
6:47 PM 15.8 °F 10.2 °F 14.0 °F 93% 30.15 in 10.0 mi WNW 3.5 mph - N/A   Overcast
6:56 PM 16.2 °F - 14.0 °F 91% 30.16 in 10.0 mi Calm Calm - N/A   Overcast
11:56 PM 15.8 °F 8.6 °F 12.2 °F 86% 30.13 in 10.0 mi North 4.6 mph - N/A   Overcast